Theta_e
308 308 308 308 308 307 307 305 304 304 303 303 303 303 302 301 298 288 283 284 282 278 281 282 280 276 275 274 269 272 273 273 269 264 265 262 260 266 265 269 271 273 270 267 266 268 271 277 279 280 282 281 282 282
308 308 308 308 307 307 306 305 304 304 303 303 302 303 302 300 298 291 282 286 285 280 281 286 285 286 284 278 275 277 273 269 276 269 266 266 262 265 263 264 274 267 274 271 274 275 279 280 281 282 282 281 281 282
307 307 307 307 307 306 306 305 303 303 303 303 302 302 302 301 299 291 283 282 281 277 280 280 281 284 286 285 285 273 279 281 279 276 267 264 263 269 260 264 269 273 275 273 275 276 277 279 281 281 281 281 282 282
306 306 307 307 306 306 305 305 303 303 303 302 302 301 300 299 297 292 284 281 280 274 272 275 285 280 283 285 284 283 281 282 282 274 263 266 263 274 268 271 270 273 275 270 272 277 278 280 280 281 281 281 281 280
305 306 306 306 306 305 305 304 303 303 303 302 301 301 300 298 296 289 287 286 282 280 269 269 280 281 286 282 282 282 282 277 269 268 264 266 272 271 270 273 271 273 274 273 272 278 278 278 280 281 281 280 280 279
305 305 306 305 305 305 304 303 303 302 303 301 301 300 298 297 290 283 278 283 284 282 273 266 276 277 284 283 282 281 281 278 268 266 264 267 278 274 261 262 272 275 276 278 276 276 278 277 275 276 279 278 275 275
304 305 305 305 305 304 304 303 302 302 302 301 300 299 297 294 286 280 279 282 287 281 272 265 265 280 283 283 277 279 278 273 266 272 269 274 277 270 273 267 274 272 275 275 274 278 276 275 278 278 277 275 271 269
303 304 304 305 304 304 303 302 302 302 302 300 299 298 297 295 290 280 285 287 282 273 269 265 263 273 280 279 270 276 274 265 270 274 275 271 266 274 270 272 269 268 267 270 273 268 272 272 271 269 268 268 267 268
302 303 304 304 304 303 302 302 301 302 301 299 297 293 285 280 275 282 290 284 278 277 266 259 265 264 276 271 273 273 275 270 269 273 268 272 260 268 272 270 265 269 272 271 262 262 264 267 269 267 267 265 270 266
302 303 303 304 303 302 302 301 301 302 300 297 286 280 273 279 288 286 277 274 274 267 264 263 258 268 274 271 272 267 271 261 260 262 269 270 268 273 273 269 266 264 268 267 268 267 262 264 265 263 269 269 273 271
301 302 302 303 303 302 301 301 301 299 295 286 275 271 278 283 276 268 266 268 264 266 263 259 263 273 275 267 264 271 261 261 263 262 262 257 262 267 265 262 268 264 267 267 263 264 269 269 270 268 265 263 263 266
301 301 302 302 302 301 301 301 299 289 286 285 279 278 273 270 266 267 261 259 261 266 263 266 266 267 270 267 265 266 261 267 259 258 263 260 267 266 261 262 260 260 263 264 260 264 263 266 270 270 268 267 266 263
301 301 301 302 302 302 301 300 297 291 286 280 276 271 271 265 262 263 263 262 260 262 265 267 267 268 267 267 265 262 261 261 258 263 261 266 266 264 262 257 258 253 255 260 259 257 258 260 260 265 266 260 263 262
300 301 301 302 302 301 301 298 294 293 285 278 273 269 268 261 264 265 267 270 269 268 268 266 266 264 258 262 262 260 257 259 258 256 264 266 265 263 258 257 259 260 260 261 264 260 260 260 261 260 260 263 263 263
300 300 300 301 301 301 300 295 295 285 281 277 272 268 265 264 258 257 258 265 265 273 269 265 263 266 257 261 257 256 258 256 261 266 267 267 263 260 260 257 258 258 261 261 258 260 261 259 259 260 256 256 260 260
300 300 298 300 301 301 297 295 288 282 275 273 263 263 255 261 260 259 261 267 268 273 268 268 261 261 258 260 257 261 262 263 268 265 266 261 262 261 262 262 264 261 262 262 263 260 261 260 261 262 255 254 256 260
300 292 299 300 300 298 295 286 284 281 279 271 266 256 262 261 267 264 267 271 275 272 270 267 267 266 261 256 258 261 265 268 267 264 261 262 266 267 265 263 262 260 261 261 262 260 262 261 259 258 262 259 256 257
294 296 299 299 298 292 287 285 282 280 276 269 268 264 259 260 265 264 269 274 274 269 269 270 266 262 265 265 264 267 267 263 260 262 263 263 263 263 266 269 263 264 264 263 263 263 263 263 264 267 263 262 259 256
295 297 298 298 291 286 282 282 283 276 269 266 261 263 267 265 265 269 274 276 271 272 270 268 266 264 267 269 271 270 267 269 273 271 267 265 265 267 265 261 262 262 264 265 265 267 267 267 266 265 264 262 263 261
297 298 298 294 293 283 279 278 280 273 270 270 266 264 268 269 271 273 275 271 273 273 270 268 268 270 271 273 273 274 273 273 274 275 275 271 265 265 266 265 264 262 262 261 261 262 262 262 260 261 262 262 263 264
296 296 295 292 285 283 279 278 276 274 269 269 267 270 269 270 273 273 274 273 273 268 268 271 271 274 273 274 274 274 272 272 275 280 279 273 262 263 262 261 262 262 266 263 267 264 263 264 264 263 263 263 262 261
293 294 288 289 283 281 279 276 273 271 272 268 270 268 269 268 270 273 276 273 270 270 272 272 275 275 275 277 276 272 273 272 271 273 271 271 270 270 274 275 269 270 270 271 267 268 267 266 263 262 261 258 258 257
291 289 285 284 280 277 273 277 270 266 267 269 270 270 267 267 270 276 270 267 268 269 272 274 276 276 278 278 276 274 274 275 273 272 271 271 272 276 278 271 270 273 274 268 264 264 264 262 262 260 258 257 257 257
290 284 280 278 275 271 275 272 269 269 269 268 271 267 262 263 269 267 264 263 269 267 272 276 276 276 276 277 279 278 274 274 275 275 275 275 274 274 272 271 269 267 266 263 263 263 262 261 260 258 257 257 257 256
281 279 277 270 272 267 265 268 265 266 266 269 264 263 262 262 263 264 265 269 269 271 275 277 278 279 278 276 273 271 267 271 274 274 271 276 275 271 271 268 263 261 261 264 264 262 259 257 256 257 257 258 257 256
275 277 275 271 266 269 264 262 263 263 262 259 259 261 261 262 264 268 267 270 269 267 267 267 271 268 264 262 266 264 263 263 268 275 267 267 269 272 270 268 266 263 260 261 261 260 258 257 258 258 257 257 259 258
273 274 272 265 267 266 265 264 264 267 261 261 260 260 265 265 268 269 258 256 257 257 258 258 256 258 261 257 258 259 259 261 264 265 261 260 259 259 261 263 263 261 256 258 259 259 259 259 258 257 257 257 258 259
276 277 275 269 268 263 264 267 266 267 262 260 265 263 268 269 269 254 255 256 256 257 255 254 254 255 257 257 258 260 260 260 260 260 260 259 257 257 257 257 257 263 257 257 257 258 259 258 257 257 257 256 256 255
278 282 279 272 263 259 258 263 260 254 255 269 265 262 256 250 251 252 254 255 256 256 253 255 255 255 257 257 257 257 258 259 261 262 259 257 257 257 255 255 256 257 258 261 264 260 259 257 257 256 255 254 252 253
279 281 272 264 262 255 247 248 247 246 249 250 250 251 251 251 253 255 254 254 254 253 251 250 250 252 253 255 256 255 255 255 254 258 260 258 256 253 253 256 257 257 258 260 259 260 262 258 258 255 253 252 252 251
259 262 256 253 251 250 250 248 247 248 250 250 250 250 249 251 253 254 253 254 253 251 251 251 252 251 252 254 254 255 254 254 253 253 254 254 254 254 255 255 254 255 255 256 255 255 255 254 254 252 252 251 250 251
260 256 255 253 253 256 254 251 250 248 247 248 248 248 250 252 250 252 253 252 252 250 250 249 250 250 249 250 251 252 255 254 253 255 255 255 255 256 255 255 255 256 256 255 255 255 254 253 252 251 250 249 247 245
261 260 257 256 256 253 254 256 255 251 248 245 246 246 246 251 251 252 254 253 251 248 248 248 249 251 252 253 253 255 256 255 257 261 260 260 258 257 256 256 256 256 256 256 255 254 253 252 250 248 248 247 244 243
Wind_Speed
24 26 26 24 23 21 19 19 17 15 12 10 10 12 12 12 12 5 0 3 4 4 2 2 2 3 2 2 4 4 5 4 4 5 3 3 3 4 1 3 4 5 6 4 3 2 8 3 2 7 2 1 2 5
25 28 27 25 24 22 20 19 18 17 15 12 11 12 12 12 13 9 3 3 2 8 3 2 3 2 1 4 4 1 4 3 3 6 2 3 2 1 1 2 1 2 5 4 8 6 2 4 4 2 3 3 4 8
26 27 28 27 25 24 21 20 19 17 16 13 11 11 10 11 10 10 4 1 4 5 4 2 2 1 2 1 1 4 2 2 1 1 4 3 2 4 4 6 2 4 3 2 3 4 8 6 4 3 4 3 4 5
26 27 29 28 26 25 23 20 19 17 15 15 12 12 12 12 11 9 5 2 4 4 7 2 1 2 4 3 3 2 2 3 4 3 3 3 3 2 3 3 4 5 6 5 6 7 6 8 6 2 2 6 9 8
27 27 29 29 27 25 24 21 19 17 15 14 14 13 12 13 17 10 5 1 1 5 5 2 0 2 3 4 5 4 3 3 2 2 3 2 1 2 2 1 6 8 10 8 8 8 5 4 8 7 9 7 9 9
28 28 30 29 28 27 25 23 20 17 15 14 15 17 18 16 6 4 5 3 2 2 7 3 3 2 3 6 8 7 4 3 3 4 2 2 2 2 3 4 9 7 4 3 4 3 4 3 2 3 8 8 4 5
30 29 30 30 30 28 26 24 22 19 18 17 17 16 12 9 5 4 6 4 1 2 6 4 4 1 1 1 2 2 4 2 3 2 2 0 2 3 3 6 7 4 6 5 2 7 2 3 7 8 7 7 6 5
31 30 31 31 31 29 27 26 23 22 21 20 16 14 17 20 12 5 4 4 4 7 5 5 3 1 2 1 1 1 2 3 5 1 1 1 3 1 8 12 5 2 1 2 6 2 2 2 6 5 4 5 4 5
34 31 32 32 33 31 29 28 26 23 23 23 22 15 5 6 4 1 5 8 3 5 5 4 7 5 1 0 2 2 2 2 3 1 2 1 3 10 13 8 6 10 8 6 5 4 3 3 7 7 6 3 7 5
36 33 32 33 34 34 32 30 28 28 29 25 5 5 2 1 3 4 7 5 5 5 5 3 1 3 3 1 1 3 2 1 1 4 3 3 8 14 12 8 6 6 8 9 7 2 1 1 6 7 9 6 7 10
37 35 32 33 32 37 35 33 31 33 18 4 3 3 1 3 4 4 2 4 3 3 1 3 4 6 0 4 4 0 3 1 2 5 3 4 9 7 4 5 6 6 8 8 3 1 6 6 10 8 6 6 6 8
39 37 34 33 31 36 37 38 38 10 4 9 10 6 3 4 4 6 2 2 2 7 1 5 4 4 2 3 5 1 4 2 5 2 1 5 10 6 3 4 4 4 7 7 4 2 4 5 7 8 5 6 7 5
40 39 37 34 35 36 38 40 31 32 18 6 6 5 3 1 4 8 8 5 2 6 6 4 3 4 2 3 4 4 4 5 1 1 7 11 5 5 6 3 3 1 3 4 4 1 2 2 1 5 6 3 7 6
42 41 39 36 37 36 39 35 37 22 8 5 6 4 7 4 7 8 7 6 4 5 9 5 5 4 1 5 2 6 2 2 2 1 11 5 6 4 2 1 4 4 6 5 6 5 3 4 4 3 3 5 7 8
42 41 40 37 39 39 40 38 30 6 5 5 5 9 9 3 1 2 1 3 0 8 7 5 4 4 2 5 3 5 4 5 8 9 6 5 4 2 2 3 5 3 6 5 4 5 5 4 3 1 3 3 4 5
43 36 27 38 39 37 41 32 8 3 2 5 2 4 1 3 2 1 3 3 3 8 3 4 5 5 1 6 5 10 8 10 7 6 5 2 3 4 4 5 5 4 6 6 5 4 4 5 5 4 1 3 4 5
43 7 38 41 41 41 37 9 4 4 7 7 4 1 4 2 4 4 3 5 8 5 4 4 6 7 5 4 4 7 9 6 5 4 3 5 4 4 4 3 3 5 5 5 4 4 3 3 4 3 4 5 5 4
17 19 45 44 33 30 3 3 5 6 7 3 5 5 3 2 4 2 3 8 6 3 4 5 8 4 7 8 6 6 7 3 3 3 3 3 4 3 4 6 5 6 5 4 4 3 4 5 6 6 3 4 4 3
23 27 47 46 30 10 6 4 3 7 1 3 3 1 4 3 2 2 4 7 2 3 6 2 4 5 6 5 5 3 3 4 4 4 3 2 3 4 5 3 4 5 5 6 6 5 4 5 1 2 3 4 4 5
37 46 50 45 30 6 6 3 3 7 5 4 3 1 4 4 5 4 8 2 3 3 2 4 6 5 5 4 4 4 3 4 4 3 0 1 2 4 4 4 3 3 2 2 2 1 1 0 1 3 3 4 4 5
29 34 45 33 6 6 5 6 4 5 5 4 3 3 4 2 5 5 5 3 1 4 4 5 4 4 2 2 2 2 2 4 4 4 4 3 1 3 2 1 2 2 3 3 4 1 3 4 3 3 4 4 2 2
13 35 14 7 5 4 4 2 7 4 5 5 5 3 5 4 5 6 7 4 5 5 5 4 4 3 2 3 3 3 4 5 2 4 6 7 5 2 2 4 4 3 4 4 3 3 3 3 3 3 3 2 3 2
29 13 9 4 7 5 5 3 7 1 7 7 4 5 2 2 2 7 4 3 4 4 4 4 3 3 3 2 2 1 4 5 2 3 3 2 3 2 2 2 2 3 2 1 1 2 2 2 3 4 3 3 3 3
15 8 7 7 7 7 6 4 4 6 5 4 7 5 2 3 1 1 4 4 4 0 4 7 4 3 2 1 3 3 2 3 3 2 2 4 2 2 2 2 1 1 2 3 2 2 2 3 4 4 3 3 3 4
9 9 8 6 4 9 7 6 4 5 5 4 6 3 3 2 3 4 5 4 3 5 7 4 6 7 6 3 2 3 4 2 3 4 2 2 2 2 2 2 2 0 1 3 2 2 2 3 3 3 3 3 5 5
7 6 8 7 4 9 8 8 8 7 7 4 2 3 3 5 4 7 6 4 2 1 3 2 3 1 3 3 4 2 0 2 1 4 2 3 2 1 1 2 1 1 1 0 4 4 4 3 3 5 4 4 6 6
7 6 3 3 8 10 8 5 4 7 6 8 7 7 5 6 8 5 2 3 3 3 2 2 2 2 4 3 2 2 2 3 4 5 5 5 4 3 2 3 2 0 1 2 2 3 5 5 4 5 5 3 3 4
5 8 18 9 8 3 10 6 6 7 6 5 9 7 13 12 8 2 2 2 2 2 3 3 4 3 4 4 3 3 4 4 6 6 6 7 5 4 4 3 3 5 3 3 3 4 5 5 6 6 6 5 3 3
4 12 16 16 8 9 5 5 5 2 1 8 7 5 4 2 0 2 2 2 3 0 2 3 4 3 4 5 5 5 4 2 3 5 3 2 1 4 4 3 3 3 2 4 9 8 8 6 6 6 7 6 4 5
14 11 10 8 8 5 3 1 3 2 4 5 6 6 3 2 2 3 2 2 2 2 1 2 1 1 1 2 4 5 5 4 3 3 5 4 4 1 1 2 3 3 4 6 8 10 12 10 10 6 7 6 5 5
5 5 11 8 7 2 1 3 2 4 5 5 4 6 4 4 2 2 3 3 2 1 3 4 5 4 3 3 3 3 3 3 3 5 5 5 4 3 2 3 3 4 5 6 6 7 8 8 7 8 8 7 6 5
5 6 10 9 5 4 1 4 4 5 4 5 4 3 3 3 3 1 3 2 3 2 3 3 4 3 2 1 2 2 5 2 2 4 7 5 4 4 4 4 4 5 7 8 7 7 9 9 7 7 6 7 5 4
5 10 10 9 6 4 4 5 5 5 5 4 4 1 2 2 4 2 1 2 3 2 1 1 2 3 4 4 1 1 1 0 4 10 11 10 9 7 5 4 5 6 9 8 7 8 9 11 8 6 7 6 5 4
Wind_Direction
188 183 179 174 170 170 170 165 158 152 151 145 136 129 131 139 122 93 25 300 112 103 107 86 13 125 40 86 136 257 33 335 34 59 114 197 126 216 52 223 185 165 139 191 94 65 274 182 91 169 232 329 187 108
189 183 179 175 170 169 169 167 163 156 151 149 140 131 145 144 127 120 82 324 355 79 120 55 67 47 69 197 135 41 180 191 176 90 57 103 162 118 156 250 182 265 185 188 178 217 237 226 221 292 220 183 163 121
189 184 180 174 171 169 169 168 167 161 155 150 145 131 144 142 133 120 123 171 54 96 46 63 130 350 9 28 279 119 276 225 75 115 148 169 148 126 157 239 211 253 176 203 57 219 227 235 244 237 208 182 122 120
187 184 180 175 171 169 167 169 168 164 159 150 143 136 133 131 125 109 111 173 90 111 112 262 111 358 293 304 223 229 157 75 75 72 111 139 145 178 219 211 196 199 122 183 266 273 311 259 221 190 119 94 94 73
187 184 180 174 171 168 165 166 167 162 160 151 139 133 131 121 107 88 92 51 146 124 153 179 79 294 37 62 66 59 97 91 92 60 74 233 188 93 323 322 244 189 182 172 215 210 169 237 183 164 149 158 150 134
187 182 180 174 170 167 164 163 163 157 153 148 138 130 126 125 121 76 41 338 2 96 101 87 279 15 88 90 79 66 67 69 93 126 201 267 241 135 109 235 254 207 206 190 197 150 146 54 87 123 156 161 138 113
186 182 178 174 170 167 163 162 159 155 149 143 137 132 121 102 70 99 174 209 96 69 86 58 348 323 344 124 45 57 26 52 105 83 66 195 175 108 215 238 254 222 213 200 196 128 80 201 187 164 132 127 107 100
183 183 179 174 169 166 163 159 157 154 145 140 128 112 101 98 100 39 6 63 80 89 65 112 267 335 341 135 41 30 37 24 14 33 343 266 329 224 252 237 241 251 343 228 193 100 208 126 91 88 79 115 99 141
182 184 180 176 170 165 162 159 154 151 141 129 125 115 72 37 60 178 115 70 58 113 133 95 142 214 289 225 161 30 120 20 274 329 296 299 252 229 226 220 215 202 191 201 113 75 72 142 154 146 133 148 151 172
181 181 182 178 173 165 161 158 154 145 134 131 83 64 48 5 255 26 9 29 14 346 37 130 14 149 89 319 65 75 24 162 322 263 294 237 260 263 258 227 205 206 193 142 111 224 114 181 176 183 198 184 179 175
179 178 181 180 175 165 159 156 150 136 124 77 93 100 215 353 61 28 65 92 326 345 132 189 173 139 96 119 185 313 172 222 52 267 126 287 271 246 268 263 229 171 174 205 110 25 153 162 179 183 213 205 176 166
178 178 179 178 173 164 161 154 145 120 142 139 117 97 80 49 45 100 235 354 155 221 211 135 189 152 134 93 95 324 137 109 235 279 51 269 251 258 280 276 279 189 172 187 183 147 208 180 178 182 180 189 189 154
178 176 175 178 172 166 159 155 141 128 112 77 62 74 82 312 56 168 195 255 247 172 182 169 121 123 78 56 76 89 110 206 39 146 234 234 265 259 236 227 270 271 178 145 161 143 91 171 78 153 190 202 154 170
176 174 172 174 169 163 154 147 143 142 91 110 136 199 187 209 241 185 190 182 191 117 141 118 102 125 144 68 130 105 245 75 68 304 237 250 244 262 288 200 124 214 195 171 185 173 180 179 206 218 209 169 164 183
174 173 170 174 171 164 154 151 149 73 111 150 131 210 199 203 69 202 231 98 280 138 128 103 69 96 46 98 68 106 57 254 212 228 232 241 254 279 260 200 202 180 171 182 155 169 204 199 195 270 221 203 166 141
170 169 172 170 170 165 150 141 113 99 72 126 106 112 343 60 298 187 178 137 197 146 109 66 116 81 187 131 108 215 145 222 237 219 231 231 232 217 212 202 197 182 172 180 181 182 163 164 187 222 153 191 193 169
166 156 168 167 165 148 140 106 118 152 161 163 223 137 155 117 169 168 154 161 156 133 174 138 134 186 111 66 252 193 211 223 220 243 221 212 200 202 180 155 162 160 166 166 157 173 186 156 136 120 234 216 190 191
169 156 159 161 150 140 56 93 144 159 189 146 159 182 182 148 128 157 156 149 144 167 150 194 128 143 184 176 239 232 229 267 233 230 234 224 219 201 161 158 162 162 155 161 173 169 168 178 201 229 169 159 141 144
160 157 157 151 148 126 119 151 172 161 89 152 88 80 127 142 203 131 145 145 96 122 116 84 122 185 217 216 221 234 214 202 190 205 222 226 195 166 160 114 135 153 169 176 186 203 198 195 201 158 162 155 193 186
156 160 156 148 150 111 115 105 86 111 162 166 97 130 119 130 127 129 141 124 130 134 136 197 210 211 195 224 200 211 200 160 136 99 329 189 137 124 149 152 175 174 171 268 278 207 127 23 251 194 174 184 191 214
149 161 147 153 111 88 110 148 117 134 133 120 131 119 99 108 127 156 157 163 144 204 224 208 223 243 220 238 229 186 166 146 195 159 174 143 182 131 118 106 123 145 180 191 225 177 173 222 218 186 184 209 199 185
142 134 140 128 92 107 104 64 121 135 88 134 125 123 128 157 153 168 138 195 217 225 198 174 215 174 205 250 230 199 159 120 158 96 76 119 110 127 158 182 165 223 211 227 179 220 220 220 171 162 164 178 128 123
124 135 133 125 117 94 111 148 91 57 118 163 131 107 154 157 165 131 210 211 236 228 196 194 192 170 159 149 109 105 140 145 131 128 132 90 3 80 158 121 157 208 265 10 129 158 181 154 136 132 124 111 114 100
108 126 146 132 118 120 137 119 100 107 94 162 149 129 164 150 115 125 244 230 236 48 187 203 149 110 63 76 211 202 139 151 129 79 107 126 188 234 165 135 118 77 114 121 112 115 120 141 132 119 118 112 109 120
129 166 125 109 115 111 115 125 113 104 124 143 109 131 180 117 135 207 227 245 199 204 205 189 190 203 195 189 68 86 31 29 146 139 24 280 132 106 143 70 58 345 156 126 147 149 121 96 89 115 129 122 133 130
123 147 142 130 147 119 158 133 156 145 114 105 115 118 139 123 149 234 209 197 178 39 51 34 255 130 69 19 120 139 151 350 338 113 116 23 45 133 119 127 119 358 271 167 133 134 136 131 133 130 118 122 131 127
134 136 110 38 111 115 87 75 93 108 126 148 163 165 149 155 211 229 71 26 25 12 5 3 3 94 123 137 95 61 12 21 48 79 91 72 56 34 70 136 161 243 321 146 112 124 148 149 129 118 114 94 110 136
121 149 143 162 103 80 118 111 132 156 149 168 126 163 165 180 196 68 27 14 342 335 63 37 27 30 80 80 78 97 80 78 88 96 99 74 47 39 33 36 24 74 86 86 94 88 98 114 121 123 122 117 94 66
146 134 130 125 79 56 68 140 143 152 94 167 122 152 155 60 16 340 342 312 282 281 65 81 49 36 80 81 65 53 55 71 105 109 101 123 359 7 1 6 32 48 57 86 84 87 98 101 104 105 99 95 82 72
137 133 108 90 80 89 267 212 127 137 57 81 107 103 83 73 18 355 332 340 55 78 103 107 43 59 198 111 107 67 33 37 48 114 144 167 167 176 19 38 61 62 62 75 83 81 80 85 90 76 78 74 76 78
297 81 74 56 81 37 125 161 76 62 61 61 22 78 106 131 101 29 17 12 33 25 74 73 67 27 39 46 60 98 82 6 35 70 82 95 104 103 91 76 69 76 78 87 91 97 98 86 92 95 91 91 83 88
15 78 116 102 108 192 56 56 68 64 32 45 34 66 101 106 91 28 1 24 43 37 55 101 102 85 21 33 27 343 47 119 132 113 114 109 101 99 102 95 87 92 95 92 88 93 95 101 99 97 101 97 92 85
81 82 82 109 115 160 199 109 67 90 51 53 27 70 49 63 116 124 80 60 105 149 219 220 176 144 116 107 86 18 24 96 144 120 117 112 112 108 100 88 85 90 92 94 94 104 100 100 92 93 94 92 81 60